TimeCST,TemperatureF,Dew PointF,Humidity,Sea Level PressureIn,VisibilityMPH,Wind Direction,Wind SpeedMPH,Gust SpeedMPH,PrecipitationIn,Events,Conditions,WindDirDegrees,DateUTC
12:13 AM,21.2,19.4,93,30.13,10.0,Calm,Calm,-,N/A,,Clear,0,2012-02-19 06:13:00
12:33 AM,21.2,19.4,93,30.12,10.0,Calm,Calm,-,N/A,,Clear,0,2012-02-19 06:33:00
12:53 AM,21.2,19.4,93,30.12,10.0,Calm,Calm,-,N/A,,Clear,0,2012-02-19 06:53:00
1:13 AM,19.4,17.6,93,30.11,10.0,Calm,Calm,-,N/A,,Clear,0,2012-02-19 07:13:00
1:33 AM,21.2,19.4,93,30.11,10.0,Calm,Calm,-,N/A,,Clear,0,2012-02-19 07:33:00
1:53 AM,21.2,19.4,93,30.10,10.0,Calm,Calm,-,N/A,,Clear,0,2012-02-19 07:53:00
2:13 AM,21.2,19.4,93,30.10,10.0,Calm,Calm,-,N/A,,Clear,0,2012-02-19 08:13:00
2:33 AM,21.2,19.4,93,30.10,10.0,Calm,Calm,-,N/A,,Clear,0,2012-02-19 08:33:00
2:53 AM,19.4,19.4,100,30.09,10.0,Calm,Calm,-,N/A,,Clear,0,2012-02-19 08:53:00
3:13 AM,19.4,19.4,100,30.09,10.0,Calm,Calm,-,N/A,,Clear,0,2012-02-19 09:13:00
3:33 AM,21.2,19.4,93,30.09,10.0,Calm,Calm,-,N/A,,Clear,0,2012-02-19 09:33:00
3:53 AM,19.4,17.6,93,30.09,10.0,Calm,Calm,-,N/A,,Clear,0,2012-02-19 09:53:00
4:33 AM,19.4,17.6,93,30.09,10.0,SSE,3.5,-,N/A,,Clear,160,2012-02-19 10:33:00
4:53 AM,19.4,19.4,100,30.09,10.0,Calm,Calm,-,N/A,,Clear,0,2012-02-19 10:53:00
5:13 AM,21.2,19.4,93,30.09,10.0,SSE,3.5,-,N/A,,Clear,160,2012-02-19 11:13:00
5:33 AM,19.4,19.4,100,30.08,10.0,SSE,4.6,-,N/A,,Clear,160,2012-02-19 11:33:00
5:53 AM,19.4,17.6,93,30.09,10.0,SSE,3.5,-,N/A,,Clear,160,2012-02-19 11:53:00
6:13 AM,19.4,19.4,100,30.08,10.0,South,3.5,-,N/A,,Clear,170,2012-02-19 12:13:00
6:33 AM,19.4,19.4,100,30.08,10.0,South,3.5,-,N/A,,Clear,170,2012-02-19 12:33:00
7:13 AM,19.4,17.6,93,30.08,10.0,South,3.5,-,N/A,,Clear,170,2012-02-19 13:13:00
7:33 AM,19.4,19.4,100,30.07,10.0,SSE,4.6,-,N/A,,Clear,160,2012-02-19 13:33:00
7:53 AM,21.2,19.4,93,30.07,10.0,SSE,4.6,-,N/A,,Clear,150,2012-02-19 13:53:00
8:14 AM,21.2,19.4,93,30.07,10.0,SSE,4.6,-,N/A,,Clear,160,2012-02-19 14:14:00
8:33 AM,23.0,21.2,93,30.07,10.0,SSE,5.8,-,N/A,,Clear,160,2012-02-19 14:33:00
8:53 AM,24.8,21.2,86,30.07,10.0,SSE,3.5,-,N/A,,Clear,160,2012-02-19 14:53:00
9:13 AM,26.6,23.0,86,30.07,10.0,SSE,4.6,-,N/A,,Clear,150,2012-02-19 15:13:00
9:33 AM,28.4,24.8,86,30.07,10.0,South,3.5,-,N/A,,Clear,170,2012-02-19 15:33:00
9:54 AM,30.2,24.8,80,30.07,10.0,SSE,4.6,-,N/A,,Clear,150,2012-02-19 15:54:00
10:13 AM,33.8,24.8,70,30.06,10.0,SSE,5.8,-,N/A,,Clear,150,2012-02-19 16:13:00
10:33 AM,35.6,24.8,65,30.07,10.0,SSE,5.8,-,N/A,,Clear,160,2012-02-19 16:33:00
10:53 AM,37.4,23.0,56,30.06,10.0,SSE,5.8,-,N/A,,Clear,160,2012-02-19 16:53:00
11:13 AM,37.4,21.2,52,30.06,10.0,SSE,6.9,-,N/A,,Clear,160,2012-02-19 17:13:00
11:33 AM,37.4,21.2,52,30.06,10.0,SSE,8.1,-,N/A,,Clear,160,2012-02-19 17:33:00
11:53 AM,39.2,21.2,49,30.05,10.0,South,6.9,-,N/A,,Clear,190,2012-02-19 17:53:00
12:13 PM,39.2,21.2,49,30.05,10.0,South,6.9,-,N/A,,Clear,170,2012-02-19 18:13:00
12:33 PM,41.0,21.2,45,30.04,10.0,South,8.1,-,N/A,,Clear,180,2012-02-19 18:33:00
12:53 PM,42.8,19.4,39,30.03,10.0,SSE,6.9,-,N/A,,Clear,150,2012-02-19 18:53:00
1:33 PM,42.8,19.4,39,30.01,10.0,South,5.8,-,N/A,,Clear,180,2012-02-19 19:33:00
1:53 PM,42.8,19.4,39,30.00,10.0,SSE,9.2,16.1,N/A,,Clear,160,2012-02-19 19:53:00
2:13 PM,42.8,19.4,39,29.99,10.0,SSE,6.9,18.4,N/A,,Clear,160,2012-02-19 20:13:00
2:33 PM,42.8,19.4,39,29.99,10.0,South,8.1,-,N/A,,Clear,170,2012-02-19 20:33:00
2:53 PM,42.8,17.6,36,29.99,10.0,SSE,9.2,18.4,N/A,,Clear,150,2012-02-19 20:53:00
3:13 PM,42.8,19.4,39,29.99,10.0,SSE,6.9,-,N/A,,Clear,160,2012-02-19 21:13:00
3:33 PM,42.8,19.4,39,29.99,10.0,SSE,10.4,16.1,N/A,,Clear,150,2012-02-19 21:33:00
3:53 PM,42.8,19.4,39,29.99,10.0,SSE,8.1,-,N/A,,Clear,160,2012-02-19 21:53:00
4:13 PM,42.8,19.4,39,29.99,10.0,SSE,4.6,-,N/A,,Clear,150,2012-02-19 22:13:00
4:33 PM,41.0,17.6,39,29.98,10.0,SSE,10.4,-,N/A,,Clear,160,2012-02-19 22:33:00
4:54 PM,39.2,19.4,45,29.99,10.0,SSE,6.9,-,N/A,,Clear,150,2012-02-19 22:54:00
5:13 PM,39.2,19.4,45,29.99,10.0,SSE,5.8,-,N/A,,Clear,150,2012-02-19 23:13:00
5:33 PM,37.4,19.4,48,29.99,10.0,SSE,4.6,-,N/A,,Clear,160,2012-02-19 23:33:00
5:53 PM,37.4,21.2,52,29.99,10.0,SSE,6.9,-,N/A,,Clear,150,2012-02-19 23:53:00
6:13 PM,35.6,21.2,56,30.00,10.0,SSE,8.1,-,N/A,,Clear,150,2012-02-20 00:13:00
6:33 PM,35.6,21.2,56,30.00,10.0,SSE,5.8,-,N/A,,Clear,150,2012-02-20 00:33:00
6:53 PM,35.6,21.2,56,30.00,10.0,SSE,5.8,-,N/A,,Clear,160,2012-02-20 00:53:00
7:13 PM,35.6,23.0,60,29.99,10.0,SE,8.1,-,N/A,,Clear,140,2012-02-20 01:13:00
7:33 PM,35.6,23.0,60,29.99,10.0,SSE,8.1,-,N/A,,Clear,150,2012-02-20 01:33:00
7:53 PM,35.6,23.0,60,29.99,10.0,SSE,8.1,-,N/A,,Clear,150,2012-02-20 01:53:00
8:13 PM,35.6,21.2,56,29.99,10.0,SSE,8.1,-,N/A,,Clear,150,2012-02-20 02:13:00
8:33 PM,33.8,21.2,60,30.00,10.0,SSE,6.9,-,N/A,,Clear,150,2012-02-20 02:33:00
9:13 PM,33.8,23.0,65,30.00,10.0,SSE,8.1,-,N/A,,Clear,150,2012-02-20 03:13:00
9:33 PM,33.8,23.0,65,30.01,10.0,SSE,8.1,-,N/A,,Clear,150,2012-02-20 03:33:00
9:53 PM,33.8,23.0,65,30.00,10.0,SSE,8.1,-,N/A,,Clear,150,2012-02-20 03:53:00
10:12 PM,33.8,23.0,65,30.01,10.0,SSE,8.1,-,N/A,,Clear,150,2012-02-20 04:12:00
10:33 PM,32.0,24.8,75,30.01,10.0,SSE,5.8,-,N/A,,Clear,160,2012-02-20 04:33:00
10:53 PM,30.2,23.0,75,30.01,10.0,SSE,4.6,-,N/A,,Clear,150,2012-02-20 04:53:00
11:13 PM,30.2,24.8,80,30.01,10.0,SSE,6.9,-,N/A,,Clear,160,2012-02-20 05:13:00
11:33 PM,30.2,24.8,80,30.00,10.0,SSE,6.9,-,N/A,,Clear,160,2012-02-20 05:33:00
11:53 PM,30.2,23.0,75,30.00,10.0,SSE,6.9,-,N/A,,Clear,160,2012-02-20 05:53:00